Location: Hawks Ness
(60.2333°N, 1.1667°W)
Time: 17:27:30
(UTC+00:00)

COSMO-SKYMED 1 - Pass Details

Date: 22 October 2019
Orbit: 621 x 623 km, 97.9° (Epoch: 22 November)

Event Time Altitude Azimuth Distance (km) Brightness Sun altitude
Rises 03:51:20 0° 134° (SE) 2,903 6.3 -23.9°
Reaches altitude 10° 03:53:38 10° 126° (SE) 2,000 5.6 -23.6°
Maximum altitude 03:57:37 36° 60° (ENE) 996 4.1 -23.1°
Drops below altitude 10° 04:01:37 10° 354° (N) 2,011 5.3 -22.7°
Sets 04:03:56 0° 346° (NNW) 2,922 6.1 -22.4°
